User: anonymous   Login
Location: Unspecified
(0.0000°N, 0.0000°E)
Time: 20:40:52
(UTC+00:00)
Language:

STARLINK-1513 - Orbit

View from above orbital plane
View from above orbital plane
View from above satellite
View from above satellite

Ground track
Ground track

The orbit is defined by the following mean orbital elements,

1 45786U          26145.39570076 +.00000000 +00000-0 +57362-4 0 00005
2 45786  53.1583 194.4283 0001338  85.8317 274.2837 15.31697440    08
Epoch (UTC): 25 May 2026 09:29:48
Eccentricity: 0.0001338
inclination: 53.1583°
perigee height: 470 km
apogee height: 472 km
right ascension of ascending node: 194.4283°
argument of perigee: 85.8317°
revolutions per day: 15.31697440
mean anomaly at epoch: 274.2837°

The dashed part of the orbit path shows where the satellite is in the earth's shadow,  

DLR